Regional Weather Roundup
Issued by NWS Kansas City/Pleasant Hill, MO

Current Version | Previous Version | Text Only | Print | Product List | Glossary On
Versions: 1 2 3 4 5 6 7 8 9 10 11 12 13 14 15 16 17 18 19 20 21 22 23 24 25 26 27 28 29 30 31 32 33 34 35 36 37 38 39 40 41 42 43 44 45 46 47 48 49 50
000
ASUS43 KEAX 220210
RWREAX

WEATHER ROUNDUP FOR EASTERN KANSAS AND NORTHWEST MISSOURI
NATIONAL WEATHER SERVICE KANSAS CITY/PLEASANT HILL MO
900 PM CDT MON AUG 21 2017

KSZ040-057-103>105-MOZ028-029-037-043-220300-
...KANSAS CITY METROPOLITAN AREA...

CITY           SKY/WX    TMP DP  RH WIND       PRES   REMARKS
K.C. INTL      TSTM      69  68  96 NE24G36   29.95R VSB 1
K.C. DOWNTOWN  CLOUDY    78  74  87 N8        29.92R THUNDER
LEES SUMMIT    CLEAR     79  76  90 SE9       29.94F
OLATHE - IXD   CLOUDY    82  75  79 S7        29.95R
OLATHE - OJC   PTCLDY    80  76  87 S9        29.94F
LAWRENCE       TSTM      72  71  97 N12G26    29.97R FOG

$$

MOZ001>008-011>017-020>025-030>033-038>040-044>046-053-054-220300-
...NORTHERN AND CENTRAL MISSOURI...

CITY           SKY/WX    TMP DP  RH WIND       PRES   REMARKS
ST. JOSEPH     TSTM      71  70  96 S13       29.93F
MOSBY          CLOUDY    72  70  94 NW14G21   29.97R THUNDER
WARRENSBURG    CLEAR     77  72  83 SE6       29.94F
WHITEMAN AFB   MOCLDY    77  77 100 SE9       29.94F
CLINTON        CLEAR     81  75  83 S7        29.96F
SEDALIA        CLOUDY    75  72  90 SE10      29.97F
WARSAW         NOT AVBL
CHILLICOTHE      N/A     71  70  96 S5        29.94F
KIRKSVILLE     MOCLDY    73  32  22 S7        29.94F

$$

MOZ041-047>049-056>058-063>065-088>090-097-220300-
...EASTERN AND SOUTHERN MISSOURI...

CITY           SKY/WX    TMP DP  RH WIND       PRES   REMARKS
ST. LOUIS INTL MOCLDY    84  72  67 SE8       30.01S
SPIRIT OF STL  CLOUDY    80  77  90 CALM      30.00R
COLUMBIA       CLOUDY    74  71  91 SW3       29.98F
JEFFERSON CITY CLOUDY    81  75  82 SW5       29.97F
ROLLA          PTCLDY    74  73  97 S5        30.04F
OSAGE BEACH    CLEAR     80  75  84 S5        30.01F
SPRINGFIELD    CLEAR     81  74  79 S8        30.03F
BRANSON        PTCLDY    81  72  74 S5        30.08S
JOPLIN         CLEAR     84  76  76 S10       30.00F HX  93
WEST PLAINS    CLEAR     80  72  76 S5        30.09S

$$

IAZ060-094-KSZ022-034>040-054-083-096-NEZ052-066-093-220300-
...KANSAS...SOUTHEAST NEBRASKA AND IOWA...

CITY           SKY/WX    TMP DP  RH WIND       PRES   REMARKS
TOPEKA         CLOUDY    73  73 100 E8        29.96R THUNDER
MANHATTAN      RAIN      76  74  93 CALM      29.92R FOG
EMPORIA        HVY RAIN  72  69  90 VRB6G20   29.96F FOG
CHANUTE        CLEAR     82  75  79 S10       29.96F
WICHITA        TSTM      75  72  90 S23G53    29.94R SQUALL  VSB 3/4
OMAHA          CLOUDY    73  65  75 E13       29.95R
LINCOLN        CLEAR     77  71  82 NE5       29.92R
FALLS CITY     LGT RAIN  72  69  90 S14       29.95R
LAMONI         TSTM      69  68  96 NE10G26   29.98R FOG
DES MOINES     CLOUDY    66  64  93 SE9       29.93F

$$




USA.gov is the U.S. government's official web portal to all federal, state and local government web resources and services.